• In Hungary
  • List of Countries
  • For 7 days
  • Water Temperature
  • Satellite Maps
  • Weather Map
  • News
  • Weather Widgets
  • user-avatar
    Login

    Hourly Weather Ustinovka

    Today, 23 September, Sunday

    Time Temperature Precipitation Wind Pressure Humidity
    00:00 +20°C° 0 mm 4 mps 751 mmHg 53%
    01:00 +19°C° 0 mm 4 mps 751 mmHg 58%
    02:00 +17°C° 0 mm 5 mps 751 mmHg 63%
    03:00 +16°C° 0.3 mm 5 mps 752 mmHg 68%
    04:00 +15°C° 0.3 mm 5 mps 752 mmHg 73%
    05:00 +14°C° 0.3 mm 5 mps 752 mmHg 78%
    06:00 +14°C° 0.7 mm 5 mps 752 mmHg 79%
    07:00 +13°C° 0.7 mm 5 mps 753 mmHg 79%
    08:00 +13°C° 0.7 mm 5 mps 753 mmHg 79%
    09:00 +14°C° 0.2 mm 5 mps 753 mmHg 72%
    10:00 +15°C° 0.2 mm 4 mps 754 mmHg 64%
    11:00 +17°C° 0.2 mm 4 mps 754 mmHg 57%
    12:00 +18°C° 0 mm 4 mps 754 mmHg 50%
    13:00 +19°C° 0 mm 4 mps 754 mmHg 44%
    14:00 +20°C° 0 mm 4 mps 754 mmHg 37%
    15:00 +20°C° 0 mm 4 mps 754 mmHg 39%
    16:00 +20°C° 0 mm 3 mps 754 mmHg 40%
    17:00 +19°C° 0 mm 3 mps 754 mmHg 41%
    18:00 +18°C° 0 mm 2 mps 754 mmHg 44%
    19:00 +17°C° 0 mm 2 mps 754 mmHg 48%
    20:00 +16°C° 0 mm 1 mps 754 mmHg 51%
    21:00 +15°C° 0 mm 1 mps 754 mmHg 52%
    22:00 +15°C° 0 mm 1 mps 754 mmHg 53%
    23:00 +13°C° 0 mm 0 mps 754 mmHg 55%

    Tomorrow, 24 September, Monday

    Time Temperature Precipitation Wind Pressure Humidity
    00:00 +14°C° 0 mm 1 mps 754 mmHg 55%
    01:00 +14°C° 0 mm 2 mps 754 mmHg 55%
    02:00 +14°C° 0 mm 2 mps 753 mmHg 56%
    03:00 +13°C° 0 mm 3 mps 753 mmHg 55%
    04:00 +13°C° 0 mm 3 mps 752 mmHg 55%
    05:00 +13°C° 0 mm 4 mps 752 mmHg 54%
    06:00 +14°C° 0 mm 5 mps 751 mmHg 51%
    07:00 +16°C° 0 mm 7 mps 751 mmHg 47%
    08:00 +17°C° 0 mm 9 mps 750 mmHg 44%
    09:00 +19°C° 0 mm 10 mps 749 mmHg 43%
    10:00 +21°C° 0 mm 10 mps 749 mmHg 43%
    11:00 +23°C° 0 mm 11 mps 748 mmHg 42%
    12:00 +23°C° 0.2 mm 11 mps 747 mmHg 46%
    13:00 +24°C° 0.2 mm 10 mps 747 mmHg 51%
    14:00 +24°C° 0.2 mm 10 mps 746 mmHg 55%
    15:00 +23°C° 1 mm 10 mps 746 mmHg 62%
    16:00 +21°C° 1 mm 9 mps 746 mmHg 68%
    17:00 +19°C° 1 mm 9 mps 746 mmHg 74%
    18:00 +17°C° 1.5 mm 9 mps 747 mmHg 75%
    19:00 +15°C° 1.5 mm 8 mps 748 mmHg 75%
    20:00 +12°C° 1.5 mm 8 mps 748 mmHg 75%
    21:00 +12°C° 0.8 mm 7 mps 749 mmHg 74%
    22:00 +11°C° 0.8 mm 6 mps 750 mmHg 74%
    23:00 +11°C° 0.8 mm 6 mps 750 mmHg 73%

    Day after tomorrow, 25 September, Tuesday

    Time Temperature Precipitation Wind Pressure Humidity
    00:00 +12°C° 0.3 mm 5 mps 751 mmHg 73%
    01:00 +10°C° 0.3 mm 5 mps 751 mmHg 74%
    02:00 +10°C° 0.3 mm 5 mps 751 mmHg 74%
    03:00 +10°C° 0 mm 5 mps 751 mmHg 75%
    04:00 +9°C° 0 mm 5 mps 751 mmHg 76%
    05:00 +8°C° 0 mm 5 mps 752 mmHg 77%
    06:00 +8°C° 0 mm 6 mps 752 mmHg 73%
    07:00 +9°C° 0 mm 6 mps 752 mmHg 69%
    08:00 +9°C° 0 mm 6 mps 753 mmHg 65%
    09:00 +10°C° 0 mm 7 mps 753 mmHg 61%
    10:00 +11°C° 0 mm 7 mps 753 mmHg 57%
    11:00 +12°C° 0 mm 7 mps 753 mmHg 53%
    12:00 +12°C° 0.1 mm 7 mps 753 mmHg 53%
    13:00 +12°C° 0.1 mm 7 mps 753 mmHg 53%
    14:00 +12°C° 0.1 mm 7 mps 754 mmHg 53%
    15:00 +12°C° 0.1 mm 7 mps 754 mmHg 55%
    16:00 +11°C° 0.1 mm 7 mps 755 mmHg 57%
    17:00 +11°C° 0.1 mm 7 mps 755 mmHg 59%
    18:00 +10°C° 0 mm 6 mps 756 mmHg 59%
    19:00 +9°C° 0 mm 6 mps 757 mmHg 59%
    20:00 +9°C° 0 mm 5 mps 757 mmHg 59%
    21:00 +8°C° 0 mm 5 mps 758 mmHg 60%
    22:00 +8°C° 0 mm 5 mps 758 mmHg 60%
    23:00 +7°C° 0 mm 5 mps 758 mmHg 61%

    26 September, Wednesday

    Time Temperature Precipitation Wind Pressure Humidity
    00:00 +7°C° 0 mm 5 mps 759 mmHg 63%
    01:00 +6°C° 0 mm 5 mps 759 mmHg 66%
    02:00 +6°C° 0 mm 5 mps 760 mmHg 68%
    03:00 +5°C° 0 mm 4 mps 760 mmHg 70%
    04:00 +5°C° 0 mm 4 mps 760 mmHg 71%
    05:00 +5°C° 0 mm 4 mps 761 mmHg 73%
    06:00 +5°C° 0 mm 5 mps 761 mmHg 71%
    07:00 +6°C° 0 mm 5 mps 762 mmHg 68%
    08:00 +7°C° 0 mm 6 mps 762 mmHg 66%
    09:00 +8°C° 0 mm 6 mps 762 mmHg 60%
    10:00 +9°C° 0 mm 6 mps 762 mmHg 55%
    11:00 +10°C° 0 mm 6 mps 763 mmHg 50%
    12:00 +11°C° 0.1 mm 6 mps 763 mmHg 48%
    13:00 +11°C° 0.1 mm 6 mps 762 mmHg 46%
    14:00 +13°C° 0.1 mm 6 mps 762 mmHg 45%
    15:00 +11°C° 0 mm 6 mps 762 mmHg 45%
    16:00 +12°C° 0 mm 5 mps 763 mmHg 46%
    17:00 +10°C° 0 mm 5 mps 763 mmHg 47%
    18:00 +10°C° 0 mm 4 mps 763 mmHg 49%
    19:00 +9°C° 0 mm 3 mps 764 mmHg 52%
    20:00 +8°C° 0 mm 3 mps 764 mmHg 55%
    21:00 +8°C° 0 mm 3 mps 764 mmHg 56%
    22:00 +7°C° 0 mm 2 mps 764 mmHg 57%
    23:00 +7°C° 0 mm 2 mps 764 mmHg 58%

    27 September, Thursday

    Time Temperature Precipitation Wind Pressure Humidity
    00:00 +6°C° 0 mm 2 mps 764 mmHg 60%
    01:00 +6°C° 0 mm 2 mps 764 mmHg 61%
    02:00 +6°C° 0 mm 2 mps 763 mmHg 62%
    03:00 +5°C° 0 mm 2 mps 763 mmHg 63%
    04:00 +5°C° 0 mm 2 mps 763 mmHg 64%
    05:00 +5°C° 0 mm 2 mps 763 mmHg 64%
    06:00 +6°C° 0 mm 2 mps 763 mmHg 60%
    07:00 +7°C° 0 mm 2 mps 763 mmHg 56%
    08:00 +8°C° 0 mm 2 mps 763 mmHg 52%
    09:00 +10°C° 0 mm 3 mps 762 mmHg 47%
    10:00 +11°C° 0 mm 3 mps 762 mmHg 42%
    11:00 +13°C° 0 mm 4 mps 762 mmHg 37%
    12:00 +14°C° 0 mm 4 mps 761 mmHg 35%
    13:00 +14°C° 0 mm 5 mps 760 mmHg 33%
    14:00 +15°C° 0 mm 5 mps 759 mmHg 32%
    15:00 +15°C° 0 mm 5 mps 759 mmHg 34%
    16:00 +15°C° 0 mm 4 mps 759 mmHg 36%
    17:00 +14°C° 0 mm 4 mps 758 mmHg 38%
    18:00 +13°C° 0 mm 4 mps 758 mmHg 41%
    19:00 +12°C° 0 mm 3 mps 758 mmHg 43%
    20:00 +11°C° 0 mm 3 mps 758 mmHg 46%
    21:00 +11°C° 0 mm 3 mps 758 mmHg 47%
    22:00 +11°C° 0 mm 3 mps 758 mmHg 48%
    23:00 +11°C° 0 mm 3 mps 758 mmHg 48%

    28 September, Friday

    Time Temperature Precipitation Wind Pressure Humidity
    00:00 +11°C° 0 mm 3 mps 758 mmHg 50%
    01:00 +11°C° 0 mm 3 mps 758 mmHg 52%
    02:00 +11°C° 0 mm 3 mps 758 mmHg 54%
    03:00 +10°C° 0 mm 3 mps 758 mmHg 58%
    04:00 +10°C° 0 mm 3 mps 757 mmHg 62%
    05:00 +10°C° 0 mm 2 mps 757 mmHg 66%
    06:00 +12°C° 0 mm 2 mps 757 mmHg 66%
    07:00 +13°C° 0 mm 2 mps 757 mmHg 66%
    08:00 +14°C° 0 mm 2 mps 757 mmHg 66%
    09:00 +16°C° 0 mm 2 mps 757 mmHg 61%
    10:00 +18°C° 0 mm 3 mps 757 mmHg 56%
    11:00 +20°C° 0 mm 3 mps 757 mmHg 52%
    12:00 +21°C° 0 mm 3 mps 757 mmHg 49%
    13:00 +21°C° 0 mm 3 mps 756 mmHg 47%
    14:00 +22°C° 0 mm 3 mps 756 mmHg 45%
    15:00 +22°C° 0 mm 3 mps 756 mmHg 47%
    16:00 +21°C° 0 mm 2 mps 755 mmHg 50%
    17:00 +21°C° 0 mm 2 mps 755 mmHg 52%
    18:00 +19°C° 0 mm 2 mps 755 mmHg 56%
    19:00 +19°C° 0 mm 1 mps 755 mmHg 60%
    20:00 +18°C° 0 mm 1 mps 756 mmHg 63%
    21:00 +18°C° 0 mm 1 mps 755 mmHg 65%
    22:00 +16°C° 0 mm 1 mps 755 mmHg 68%
    23:00 +16°C° 0 mm 1 mps 755 mmHg 70%
    Show more